Location: Dana
(41.8364°N, 106.7042°W)
Time: 14:37:04
(UTC+00:00)

Altair - Pass Details

Date: 12 May 2026
Orbit: 1501 x 1682 km, 47.2° (Epoch: 6 June)

Event Time Altitude Azimuth Distance (km) Brightness Sun altitude
Rises 18:10:23 0° 295° (WNW) 4,936 9.9 63.9°
Reaches altitude 10° 18:13:33 10° 295° (WNW) 3,949 9.6 64.2°
Maximum altitude 18:23:46 84° 209° (SSW) 1,681 9.4 65.0°
Drops below altitude 10° 18:33:45 10° 122° (ESE) 3,869 10.0 65.6°
Sets 18:36:50 0° 122° (ESE) 4,832 10.4 65.8°
